| time (UTC) | temp F | wind direction | speed knots | gust knots | rain 1hr in | rain 24hr in | rain mn in | humidity % | barometer mb |
| 20260507060600 | 70 | 40 | 4.3 | 0.0 | 0.00 | 0.00 | 0.00 | 94 | 1013.0 |
| 20260507053559 | 69 | 40 | 4.3 | 0.0 | 0.00 | 0.00 | 0.00 | 94 | 1013.0 |
| 20260507050558 | 68 | 40 | 3.5 | 0.0 | 0.00 | 0.00 | 0.00 | 94 | 1014.0 |
| 20260507043557 | 67 | 40 | 3.5 | 0.0 | 0.00 | 0.00 | 0.00 | 94 | 1014.0 |
| 20260507040555 | 66 | 40 | 3.5 | 0.0 | 0.00 | 0.00 | 0.00 | 94 | 1014.0 |
| 20260507033554 | 74 | 70 | 4.3 | 0.0 | 0.00 | 0.00 | 0.00 | 88 | 1014.0 |
| 20260507030553 | 73 | 70 | 4.3 | 0.0 | 0.00 | 0.00 | 0.00 | 88 | 1014.0 |
| 20260507023552 | 72 | 70 | 4.3 | 0.0 | 0.00 | 0.00 | 0.00 | 88 | 1014.0 |
| 20260507020551 | 71 | 70 | 4.3 | 0.0 | 0.00 | 0.00 | 0.00 | 88 | 1013.0 |
| 20260507013550 | 77 | 310 | 5.2 | 0.0 | 0.00 | 0.00 | 0.00 | 73 | 1013.0 |
| 20260507010549 | 77 | 310 | 5.2 | 0.0 | 0.00 | 0.00 | 0.00 | 73 | 1012.0 |
| 20260507003548 | 78 | 320 | 7.0 | 0.0 | 0.00 | 0.00 | 0.00 | 69 | 1013.0 |
| 20260507000547 | 78 | 350 | 2.6 | 0.0 | 0.00 | 0.00 | 0.00 | 78 | 1011.0 |
| 20260506233546 | 79 | 350 | 2.6 | 0.0 | 0.00 | 0.00 | 0.00 | 21 | 1011.0 |
| 20260506230545 | 78 | 350 | 2.6 | 0.0 | 0.00 | 0.00 | 0.00 | 21 | 1010.0 |
| 20260506223543 | 80 | 0 | 0.9 | 0.0 | 0.00 | 0.00 | 0.00 | 74 | 1010.0 |
| 20260506220542 | 84 | 100 | 2.6 | 0.0 | 0.00 | 0.00 | 0.00 | 58 | 1009.0 |
| 20260506213541 | 85 | 100 | 3.5 | 0.0 | 0.00 | 0.00 | 0.00 | 58 | 1009.0 |
| 20260506210540 | 84 | 100 | 3.5 | 0.0 | 0.00 | 0.00 | 0.00 | 58 | 1008.0 |
| 20260506203540 | 88 | 180 | 4.3 | 0.0 | 0.00 | 0.00 | 0.00 | 10 | 1008.0 |
| 20260506200538 | 87 | 180 | 4.3 | 0.0 | 0.00 | 0.00 | 0.00 | 10 | 1008.0 |
| 20260506193537 | 86 | 180 | 4.3 | 0.0 | 0.00 | 0.00 | 0.00 | 10 | 1008.0 |
| 20260506190536 | 85 | 180 | 4.3 | 0.0 | 0.00 | 0.00 | 0.00 | 10 | 1009.0 |
| 20260506183535 | 84 | 180 | 4.3 | 0.0 | 0.00 | 0.00 | 0.00 | 10 | 1009.0 |
| 20260506180534 | 83 | 180 | 4.3 | 0.0 | 0.00 | 0.00 | 0.00 | 10 | 1010.0 |
| 20260506173533 | 82 | 180 | 4.3 | 0.0 | 0.00 | 0.00 | 0.00 | 10 | 1010.0 |
| 20260506170532 | 81 | 180 | 4.3 | 0.0 | 0.00 | 0.00 | 0.00 | 10 | 1011.0 |
| 20260506163531 | 80 | 180 | 4.3 | 0.0 | 0.00 | 0.00 | 0.00 | 10 | 1011.0 |
| 20260506160530 | 79 | 180 | 4.3 | 0.0 | 0.00 | 0.00 | 0.00 | 10 | 1013.0 |
| 20260506153529 | 78 | 180 | 4.3 | 0.0 | 0.00 | 0.00 | 0.00 | 10 | 1013.0 |
| 20260506150528 | 77 | 180 | 5.2 | 0.0 | 0.00 | 0.00 | 0.00 | 10 | 1015.0 |
| 20260506143527 | 76 | 180 | 5.2 | 0.0 | 0.00 | 0.00 | 0.00 | 10 | 1015.0 |
| 20260506140526 | 75 | 180 | 5.2 | 0.0 | 0.00 | 0.00 | 0.00 | 10 | 1015.0 |
| 20260506133525 | 74 | 0 | 1.7 | 0.0 | 0.00 | 0.00 | 0.00 | 10 | 1015.0 |
| 20260506130524 | 73 | 0 | 1.7 | 0.0 | 0.00 | 0.00 | 0.00 | 10 | 1015.0 |
| 20260506123523 | 72 | 0 | 0.9 | 0.0 | 0.00 | 0.00 | 0.00 | 10 | 1015.0 |
| 20260506120522 | 71 | 90 | 0.9 | 0.0 | 0.00 | 0.00 | 0.00 | 10 | 1015.0 |
| 20260506113521 | 70 | 90 | 1.7 | 0.0 | 0.00 | 0.00 | 0.00 | 10 | 1015.0 |
| 20260506110520 | 69 | 90 | 1.7 | 0.0 | 0.00 | 0.00 | 0.00 | 10 | 1014.0 |
| 20260506103519 | 68 | 0 | 0.9 | 0.0 | 0.00 | 0.00 | 0.00 | 10 | 1014.0 |
| 20260506100518 | 72 | 40 | 3.5 | 0.0 | 0.00 | 0.00 | 0.00 | 94 | 1013.0 |
| 20260506093517 | 71 | 40 | 3.5 | 0.0 | 0.00 | 0.00 | 0.00 | 94 | 1013.0 |
| 20260506090516 | 70 | 40 | 3.5 | 0.0 | 0.00 | 0.00 | 0.00 | 94 | 1013.0 |
| 20260506083515 | 69 | 40 | 3.5 | 0.0 | 0.00 | 0.00 | 0.00 | 94 | 1013.0 |
| 20260506080514 | 73 | 30 | 3.5 | 0.0 | 0.00 | 0.00 | 0.00 | 94 | 1013.0 |
| 20260506073513 | 72 | 30 | 3.5 | 0.0 | 0.00 | 0.00 | 0.00 | 94 | 1013.0 |
| 20260506070512 | 71 | 30 | 3.5 | 0.0 | 0.00 | 0.00 | 0.00 | 94 | 1013.0 |